"2016-03-20 00:00:00",1473051,4.096,283.7,7.098,1.294,1.468,99.51904,-1.926,-0.615,31.69,0,109.9,13.25,-1.18,245.7
"2016-03-20 00:00:30",1473052,5.041,306.1,7.809,1.231,2.664,99.52045,-1.922,-0.63,31.84,0,109.9,13.25,-1.18,268.1
"2016-03-20 00:01:00",1473053,4.5,297.4,7.301,1.182,0.983,99.52129,-1.92,-0.663,32.05,0,109.9,13.25,-1.17,259.4
"2016-03-20 00:01:30",1473054,5.7,298.1,7.42,1.302,3.049,99.5176,-1.929,-0.628,31.81,0,109.9,13.25,-1.18,260.1
"2016-03-20 00:02:00",1473055,4.863,301,9.18,1.293,0.873,99.51505,-1.936,-0.711,31.74,0,109.9,13.26,-1.19,263.0
"2016-03-20 00:02:30",1473056,5.017,298.2,10.45,1.421,2.345,99.50883,-1.951,-0.593,32.11,0,109.9,13.26,-1.21,260.2
"2016-03-20 00:03:00",1473057,4.988,288.6,7.418,1.369,2.59,99.49922,-1.976,-0.655,31.72,0,109.9,13.26,-1.23,250.6
"2016-03-20 00:03:30",1473058,4.565,283.4,5.884,1.34,2.336,99.50063,-1.972,-0.654,31.54,0,109.9,13.26,-1.23,245.4
"2016-03-20 00:04:00",1473059,4.1,284.6,6.759,1.369,1.022,99.50344,-1.965,-0.733,31.5,0,109.9,13.26,-1.22,246.6
"2016-03-20 00:04:30",1473060,4.059,290.4,8.81,1.05,1.173,99.50372,-1.965,-0.672,31.8,0,109.9,13.26,-1.22,252.4
"2016-03-20 00:05:00",1473061,5.537,294.8,8.45,1.315,1.577,99.49722,-1.981,-0.691,32.15,0,109.9,13.26,-1.24,256.8
"2016-03-20 00:05:30",1473062,5.96,291.2,6.865,1.225,1.778,99.48957,-2.001,-0.66,32.21,0,109.9,13.26,-1.26,253.2
"2016-03-20 00:06:00",1473063,6.179,293.3,6.857,1.304,3.109,99.4791,-2.027,-0.647,32.78,0,109.9,13.26,-1.28,255.3
"2016-03-20 00:06:30",1473064,5.28,290.7,6.483,1.336,1.654,99.47909,-2.027,-0.742,32.95,0,109.9,13.26,-1.28,252.7
"2016-03-20 00:07:00",1473065,5.304,291.6,6.4,1.358,2.115,99.48049,-2.024,-0.716,33.19,0,109.9,13.26,-1.28,253.6
"2016-03-20 00:07:30",1473066,4.918,290.9,8.47,1.36,1.766,99.48161,-2.021,-0.692,32.9,0,109.9,13.26,-1.28,252.9
"2016-03-20 00:08:00",1473067,5.139,287.1,6.632,1.31,1.875,99.48274,-2.018,-0.757,32.89,0,109.9,13.26,-1.27,249.1
"2016-03-20 00:08:30",1473068,5.748,302.2,7.579,1.256,2.411,99.48415,-2.014,-0.733,33.1,0,109.9,13.26,-1.27,264.2
"2016-03-20 00:09:00",1473069,5.679,303.9,6.566,1.306,2.942,99.4847,-2.013,-0.703,33.17,0,109.9,13.26,-1.27,265.9
"2016-03-20 00:09:30",1473070,4.742,300.9,6.795,1.234,1.997,99.47707,-2.032,-0.81,33.32,0,109.9,13.26,-1.29,262.9
"2016-03-20 00:10:00",1473071,5.164,306.8,7.855,1.324,1.963,99.47281,-2.043,-0.782,33.25,0,109.9,13.26,-1.30,268.8
"2016-03-20 00:10:30",1473072,5.522,302.6,8.49,1.376,2.181,99.46207,-2.071,-0.801,33.06,0,109.9,13.27,-1.33,264.6
"2016-03-20 00:11:00",1473073,4.88,302.9,8.81,1.322,1.719,99.45641,-2.085,-0.79,33.21,0,109.9,13.27,-1.34,264.9
"2016-03-20 00:11:30",1473074,5.421,295,7.679,1.319,3.165,99.45726,-2.083,-0.732,34.02,0,109.9,13.27,-1.34,257.0
"2016-03-20 00:12:00",1473075,4.83,289,6.821,1.332,1.643,99.45726,-2.083,-0.878,34.15,0,109.9,13.27,-1.34,251.0
"2016-03-20 00:12:30",1473076,4.73,291,7.093,1.264,1.241,99.45698,-2.084,-0.778,34.31,0,109.9,13.27,-1.34,253.0
"2016-03-20 00:13:00",1473077,4.924,291.1,9.51,1.365,2.083,99.45726,-2.083,-0.835,34.66,0,109.9,13.27,-1.34,253.1
"2016-03-20 00:13:30",1473078,3.934,295.3,8.79,1.229,1.674,99.45698,-2.084,-0.791,34.49,0,109.9,13.27,-1.34,257.3
"2016-03-20 00:14:00",1473079,4.974,301.6,6.832,1.298,2.076,99.45499,-2.089,-0.813,34.93,0,109.9,13.26,-1.34,263.6
"2016-03-20 00:14:30",1473080,4.775,303.7,9.28,1.431,2.042,99.45161,-2.097,-0.824,35.24,0,109.9,13.26,-1.35,265.7
"2016-03-20 00:15:00",1473081,4.334,296.6,9.14,1.309,1.586,99.44651,-2.11,-0.89,34.73,0,109.9,13.26,-1.37,258.6
"2016-03-20 00:15:30",1473082,4.615,298.8,7.777,1.442,1.954,99.42616,-2.162,-0.831,34.27,0,109.8,13.26,-1.42,260.8
"2016-03-20 00:16:00",1473083,5.722,292.6,8.72,1.62,1.773,99.42249,-2.172,-0.911,33.88,0,109.9,13.26,-1.43,254.6
"2016-03-20 00:16:30",1473084,5.392,295.3,8.23,1.405,1.899,99.40128,-2.226,-0.902,33.5,0,109.9,13.26,-1.48,257.3
"2016-03-20 00:17:00",1473085,5.644,298,8.03,1.341,2.733,99.38941,-2.256,-0.944,33.54,0,109.9,13.26,-1.51,260.0
"2016-03-20 00:17:30",1473086,5.192,295.7,6.137,1.379,1.839,99.38941,-2.256,-1.03,33.36,0,109.9,13.26,-1.51,257.7
"2016-03-20 00:18:00",1473087,5.194,299.1,7.641,1.324,2.432,99.38941,-2.256,-0.908,33.33,0,109.9,13.26,-1.51,261.1
"2016-03-20 00:18:30",1473088,4.972,304.8,7.689,1.36,1.947,99.38941,-2.256,-1.079,33.13,0,109.9,13.26,-1.51,266.8
"2016-03-20 00:19:00",1473089,4.313,313.7,9.58,1.534,2.021,99.38941,-2.256,-1.012,32.91,0,109.9,13.27,-1.51,275.7
"2016-03-20 00:19:30",1473090,4.32,309.7,8.76,1.486,2.021,99.38941,-2.256,-0.977,32.59,0,109.9,13.27,-1.51,271.7
"2016-03-20 00:20:00",1473091,4.741,309.4,8.97,1.404,3.072,99.38941,-2.256,-0.95,32.54,0,109.9,13.27,-1.51,271.4
"2016-03-20 00:20:30",1473092,4.573,307.4,5.819,1.598,1.822,99.38969,-2.255,-1.012,32.4,0,109.9,13.27,-1.51,269.4
"2016-03-20 00:21:00",1473093,5.176,295.9,7.149,1.754,2.118,99.39053,-2.253,-0.962,32.57,0,109.9,13.27,-1.51,257.9
"2016-03-20 00:21:30",1473094,4.057,297.2,9.99,1.25,2.113,99.39194,-2.249,-1.013,32.43,0,109.9,13.27,-1.51,259.2
"2016-03-20 00:22:00",1473095,4.976,294.1,9.26,1.398,1.965,99.39334,-2.246,-1.019,32.55,0,109.9,13.27,-1.50,256.1
"2016-03-20 00:22:30",1473096,5.642,295.3,7.682,1.303,3.112,99.39474,-2.242,-0.965,33.43,0,109.9,13.27,-1.50,257.3
"2016-03-20 00:23:00",1473097,4.929,305.4,7.385,1.368,1.86,99.39078,-2.252,-1.062,34.17,0,109.9,13.28,-1.51,267.4
"2016-03-20 00:23:30",1473098,4.81,304.9,7.61,1.396,1.602,99.38992,-2.255,-0.979,33.91,0,109.9,13.28,-1.51,266.9
"2016-03-20 00:24:00",1473099,5.304,299.3,5.974,1.322,2.132,99.38539,-2.266,-0.993,33.93,0,109.9,13.28,-1.52,261.3
"2016-03-20 00:24:30",1473100,5.776,303.7,6.854,1.508,2.558,99.3848,-2.268,-0.963,34.75,0,109.8,13.28,-1.52,265.7
"2016-03-20 00:25:00",1473101,6.136,309.4,7.951,1.3,3.253,99.38564,-2.265,-0.921,34.31,0,109.8,13.28,-1.52,271.4
"2016-03-20 00:25:30",1473102,6.089,303.7,6.986,1.18,2.997,99.3862,-2.264,-0.999,33.85,0,109.8,13.28,-1.52,265.7
"2016-03-20 00:26:00",1473103,5.001,300.8,6.969,1.235,2.063,99.38337,-2.271,-1.079,34.36,0,109.8,13.28,-1.53,262.8
"2016-03-20 00:26:30",1473104,4.855,305.9,8.38,1.344,1.826,99.37686,-2.288,-1.034,34.58,0,109.8,13.28,-1.54,267.9
"2016-03-20 00:27:00",1473105,5.535,308.1,7.728,1.322,1.901,99.37403,-2.295,-1.024,34.51,0,109.8,13.28,-1.55,270.1
"2016-03-20 00:27:30",1473106,4.979,297.8,8.33,1.341,2.146,99.37347,-2.296,-1.027,34.94,0,109.8,13.28,-1.55,259.8
"2016-03-20 00:28:00",1473107,5.592,304.8,7.379,1.306,3.104,99.37263,-2.299,-0.982,35.36,0,109.8,13.28,-1.55,266.8
"2016-03-20 00:28:30",1473108,5.051,300.5,8.45,1.348,1.908,99.37572,-2.291,-1.061,35.58,0,109.8,13.28,-1.55,262.5
"2016-03-20 00:29:00",1473109,4.712,304.3,6.405,1.297,1.52,99.37487,-2.293,-1.03,35.81,0,109.8,13.28,-1.55,266.3
"2016-03-20 00:29:30",1473110,4.951,297.3,8.17,1.455,2.178,99.36044,-2.33,-1.07,35.67,0,109.8,13.29,-1.59,259.3
"2016-03-20 00:30:00",1473111,5.324,300.7,7.175,1.329,2.307,99.34572,-2.367,-1.071,35.27,0,109.8,13.28,-1.62,262.7
"2016-03-20 00:30:30",1473112,5.926,299,6.878,1.404,2.652,99.34769,-2.362,-1.121,34.02,0,109.8,13.28,-1.62,261.0
"2016-03-20 00:31:00",1473113,5.527,297.1,6.085,1.35,2.444,99.34797,-2.361,-1.05,34.37,0,109.8,13.28,-1.62,259.1
"2016-03-20 00:31:30",1473114,5.345,297.9,6.335,1.29,2.328,99.34853,-2.36,-1.128,34.52,0,109.8,13.28,-1.62,259.9
"2016-03-20 00:32:00",1473115,5.639,289.2,7.83,1.247,2.964,99.35022,-2.356,-1.14,34.61,0,109.8,13.28,-1.61,251.2
"2016-03-20 00:32:30",1473116,5.902,295,8.97,1.43,2.197,99.34965,-2.357,-1.12,34.19,0,109.8,13.28,-1.61,257.0
"2016-03-20 00:33:00",1473117,6.072,294.6,7.274,1.498,2.275,99.34738,-2.363,-1.186,33.88,0,109.8,13.28,-1.62,256.6
"2016-03-20 00:33:30",1473118,6.131,295.1,6.401,1.268,3.033,99.34201,-2.377,-1.081,34.35,0,109.8,13.28,-1.63,257.1
"2016-03-20 00:34:00",1473119,5.258,296.9,7.214,1.497,2.409,99.34029,-2.381,-1.129,34.59,0,109.8,13.28,-1.64,258.9
"2016-03-20 00:34:30",1473120,5.548,289.5,9.07,1.305,3.139,99.33803,-2.387,-1.13,34.69,0,109.8,13.28,-1.64,251.5
"2016-03-20 00:35:00",1473121,5.333,288.6,7.317,1.381,2.424,99.33689,-2.39,-1.128,34.64,0,109.8,13.28,-1.65,250.6
"2016-03-20 00:35:30",1473122,5.558,286.1,6.521,1.369,2.267,99.32247,-2.426,-1.132,34.05,0,109.8,13.29,-1.68,248.1
"2016-03-20 00:36:00",1473123,6.11,288.1,7.747,1.26,2.412,99.32133,-2.429,-1.18,33.56,0,109.8,13.29,-1.69,250.1
"2016-03-20 00:36:30",1473124,5.457,283.1,6.517,1.36,2.568,99.32133,-2.429,-1.133,33.47,0,109.8,13.29,-1.69,245.1
"2016-03-20 00:37:00",1473125,5.849,286.5,7.216,1.354,3.123,99.31455,-2.447,-1.185,33.09,0,109.8,13.29,-1.70,248.5
"2016-03-20 00:37:30",1473126,5.566,290.6,7.089,1.276,2.426,99.30466,-2.472,-1.203,33.52,0,109.8,13.29,-1.73,252.6
"2016-03-20 00:38:00",1473127,5.916,282,6.618,1.416,1.858,99.2925,-2.503,-1.201,33.83,0,109.8,13.29,-1.76,244.0
"2016-03-20 00:38:30",1473128,5.557,281.4,5.84,1.371,1.641,99.28741,-2.516,-1.255,33.47,0,109.8,13.29,-1.77,243.4
"2016-03-20 00:39:00",1473129,5.801,287.6,6.492,1.267,3.184,99.28373,-2.525,-1.148,33.6,0,109.8,13.29,-1.78,249.6
"2016-03-20 00:39:30",1473130,4.951,280.6,6.553,1.2,1.46,99.2727,-2.553,-1.309,33.29,0,109.8,13.3,-1.81,242.6
"2016-03-20 00:40:00",1473131,5.753,286.6,7.562,1.367,2.545,99.26505,-2.573,-1.222,33.26,0,109.8,13.3,-1.83,248.6
"2016-03-20 00:40:30",1473132,5.494,290.1,6.232,1.323,1.749,99.26105,-2.583,-1.296,33.09,0,109.8,13.3,-1.84,252.1
"2016-03-20 00:41:00",1473133,6.143,291.4,7.141,1.313,2.618,99.25766,-2.592,-1.268,33.19,0,109.8,13.3,-1.85,253.4
"2016-03-20 00:41:30",1473134,5.953,294.8,6.637,1.279,2.788,99.24829,-2.615,-1.241,33.69,0,109.8,13.3,-1.87,256.8
"2016-03-20 00:42:00",1473135,5.81,294.6,7.632,1.366,3.194,99.23754,-2.643,-1.261,34.39,0,109.8,13.3,-1.90,256.6
"2016-03-20 00:42:30",1473136,5.983,286.2,6.44,1.351,2.659,99.2361,-2.646,-1.377,33.84,0,109.8,13.3,-1.90,248.2
"2016-03-20 00:43:00",1473137,5.669,287.1,7.771,1.332,1.805,99.23637,-2.646,-1.38,33.33,0,109.8,13.3,-1.90,249.1
"2016-03-20 00:43:30",1473138,5.872,289.8,7.246,1.379,2.383,99.22903,-2.664,-1.408,33.2,0,109.8,13.3,-1.92,251.8
"2016-03-20 00:44:00",1473139,6.194,285.9,6.748,1.282,3.292,99.22109,-2.685,-1.356,33.32,0,109.8,13.3,-1.94,247.9
"2016-03-20 00:44:30",1473140,6.18,286.7,6.594,1.352,3.194,99.21884,-2.69,-1.333,33.42,0,109.8,13.3,-1.95,248.7
"2016-03-20 00:45:00",1473141,5.874,282.6,6.062,1.322,2.758,99.21516,-2.7,-1.462,33.49,0,109.8,13.3,-1.96,244.6
"2016-03-20 00:45:30",1473142,5.466,283.1,7.45,1.321,2.496,99.20609,-2.723,-1.431,33.52,0,109.8,13.3,-1.98,245.1
"2016-03-20 00:46:00",1473143,5.392,291.4,6.678,1.395,2.175,99.20889,-2.716,-1.436,33.51,0,109.8,13.3,-1.97,253.4
"2016-03-20 00:46:30",1473144,5.116,295.2,7.148,1.346,2.279,99.20888,-2.716,-1.47,33.45,0,109.8,13.3,-1.97,257.2
"2016-03-20 00:47:00",1473145,4.871,291.2,6.065,1.406,2.087,99.20378,-2.729,-1.536,33.27,0,109.8,13.3,-1.99,253.2
"2016-03-20 00:47:30",1473146,4.913,293.5,9.3,1.335,2.885,99.1953,-2.75,-1.465,33.18,0,109.8,13.3,-2.01,255.5
"2016-03-20 00:48:00",1473147,3.944,302.2,8.01,1.162,1.106,99.19417,-2.753,-1.498,33.03,0,109.8,13.3,-2.01,264.2
"2016-03-20 00:48:30",1473148,5.16,298.6,8.86,1.156,3.404,99.19075,-2.762,-1.506,32.94,0,109.7,13.3,-2.02,260.6
"2016-03-20 00:49:00",1473149,4.31,283.4,7.967,1.231,1.806,99.18253,-2.783,-1.56,32.8,0,109.8,13.3,-2.04,245.4
"2016-03-20 00:49:30",1473150,5.781,290.8,7.166,1.327,3.15,99.18281,-2.782,-1.458,32.85,0,109.8,13.3,-2.04,252.8
"2016-03-20 00:50:00",1473151,5.708,294.7,7.056,1.31,3.043,99.18393,-2.779,-1.448,33.28,0,109.8,13.3,-2.04,256.7
"2016-03-20 00:50:30",1473152,6.194,294.3,6.898,1.317,2.856,99.18533,-2.776,-1.553,33.45,0,109.8,13.3,-2.03,256.3
"2016-03-20 00:51:00",1473153,5.695,293.8,7.338,1.355,2.508,99.18505,-2.777,-1.558,33.19,0,109.8,13.3,-2.03,255.8
"2016-03-20 00:51:30",1473154,6.4,297,6.46,1.275,3.306,99.18448,-2.778,-1.535,33.06,0,109.8,13.3,-2.04,259.0
"2016-03-20 00:52:00",1473155,5.853,294.9,6.637,1.361,2.177,99.17317,-2.807,-1.504,33.2,0,109.8,13.3,-2.06,256.9
"2016-03-20 00:52:30",1473156,5.98,294.5,6.5,1.35,3.088,99.16978,-2.815,-1.509,33.08,0,109.7,13.31,-2.07,256.5
"2016-03-20 00:53:00",1473157,5.68,292.8,6.625,1.303,3.19,99.16525,-2.827,-1.518,32.98,0,109.7,13.31,-2.08,254.8
"2016-03-20 00:53:30",1473158,4.928,288.8,7.365,1.241,2.26,99.15337,-2.857,-1.527,32.92,0,109.7,13.31,-2.12,250.8
"2016-03-20 00:54:00",1473159,5.335,288.4,7.657,1.299,2.915,99.15138,-2.862,-1.573,32.99,0,109.7,13.32,-2.12,250.4
"2016-03-20 00:54:30",1473160,5.952,291.9,7.287,1.278,2.527,99.15138,-2.862,-1.627,32.96,0,109.7,13.32,-2.12,253.9
"2016-03-20 00:55:00",1473161,6.475,292,6.771,1.314,2.68,99.15138,-2.862,-1.572,33.05,0,109.7,13.32,-2.12,254.0
"2016-03-20 00:55:30",1473162,6.463,293.5,6.617,1.267,3.271,99.1511,-2.863,-1.527,33.03,0,109.7,13.32,-2.12,255.5
"2016-03-20 00:56:00",1473163,6.454,296.7,6.505,1.148,3.772,99.14796,-2.871,-1.527,33.02,0,109.7,13.32,-2.13,258.7
"2016-03-20 00:56:30",1473164,5.887,293.8,6.953,1.318,3.228,99.14258,-2.885,-1.532,32.95,0,109.7,13.32,-2.14,255.8
"2016-03-20 00:57:00",1473165,5.775,289.7,7.174,1.36,2.303,99.14171,-2.887,-1.68,33.21,0,109.7,13.32,-2.15,251.7
"2016-03-20 00:57:30",1473166,5.724,290.3,7.006,1.385,2.7,99.13831,-2.896,-1.62,33.37,0,109.7,13.32,-2.15,252.3
"2016-03-20 00:58:00",1473167,5.73,289.5,6.733,1.346,2.977,99.13095,-2.914,-1.579,33.25,0,109.7,13.32,-2.17,251.5
"2016-03-20 00:58:30",1473168,5.545,291.1,6.841,1.309,3.216,99.12894,-2.919,-1.585,32.87,0,109.7,13.32,-2.18,253.1
"2016-03-20 00:59:00",1473169,6.386,290.3,6.703,1.277,3.387,99.13427,-2.906,-1.583,32.58,0,109.7,13.32,-2.16,252.3
"2016-03-20 00:59:30",1473170,5.394,288.2,6.672,1.291,2.506,99.13595,-2.902,-1.631,32.49,0,109.7,13.32,-2.16,250.2
"2016-03-20 01:00:00",1473171,5.473,295.6,10.11,1.461,2.879,99.13651,-2.9,-1.701,32.17,0,109.7,13.32,-2.16,257.6
"2016-03-20 01:00:30",1473172,5.848,287.8,6.823,1.475,2.91,99.13623,-2.901,-1.651,31.93,0,109.7,13.32,-2.16,249.8
"2016-03-20 01:01:00",1473173,4.963,282.9,9.11,1.166,2.508,99.13001,-2.917,-1.656,31.71,0,109.7,13.32,-2.17,244.9
"2016-03-20 01:01:30",1473174,5.181,285.8,9.35,1.275,3.525,99.12123,-2.939,-1.635,31.58,0,109.7,13.33,-2.20,247.8
"2016-03-20 01:02:00",1473175,5.016,292.7,8.39,1.329,3.589,99.1184,-2.946,-1.621,31.47,0,109.7,13.33,-2.20,254.7
"2016-03-20 01:02:30",1473176,4.507,290.2,7.662,1.364,2.434,99.111,-2.965,-1.7,31.31,0,109.7,13.33,-2.22,252.2
"2016-03-20 01:03:00",1473177,4.641,284.3,7.61,1.217,2.755,99.10789,-2.973,-1.678,31.05,0,109.7,13.33,-2.23,246.3
"2016-03-20 01:03:30",1473178,4.676,288.2,6.516,1.372,2.922,99.1104,-2.967,-1.738,30.79,0,109.7,13.33,-2.23,250.2
"2016-03-20 01:04:00",1473179,4.005,283.8,6.849,1.308,2.251,99.10361,-2.984,-1.717,30.75,0,109.7,13.33,-2.24,245.8
"2016-03-20 01:04:30",1473180,4.341,285,8.66,1.318,3.076,99.09624,-3.003,-1.75,30.62,0,109.7,13.33,-2.26,247.0
"2016-03-20 01:05:00",1473181,5.368,298.9,10.65,1.357,2.79,99.09171,-3.014,-1.722,30.8,0,109.7,13.33,-2.27,260.9
"2016-03-20 01:05:30",1473182,3.753,305.2,8.1,1.326,2.687,99.08318,-3.036,-1.711,30.88,0,109.7,13.33,-2.29,267.2
"2016-03-20 01:06:00",1473183,3.738,292.7,6.071,1.49,3.124,99.08318,-3.036,-1.798,30.87,0,109.7,13.33,-2.29,254.7
"2016-03-20 01:06:30",1473184,2.571,308.5,10.12,1.299,2.192,99.08064,-3.043,-1.765,31,0,109.7,13.33,-2.30,270.5
"2016-03-20 01:07:00",1473185,3.273,294,12.93,1.142,1.92,99.07102,-3.067,-1.862,31,0,109.7,13.33,-2.33,256.0
"2016-03-20 01:07:30",1473186,3.796,288,12.1,1.284,2.537,99.0529,-3.113,-1.818,31.13,0,109.7,13.33,-2.37,250.0
"2016-03-20 01:08:00",1473187,3.757,284.4,10.7,1.361,2.903,99.04951,-3.122,-1.79,31.43,0,109.7,13.33,-2.38,246.4
"2016-03-20 01:08:30",1473188,4.413,289.3,7.812,1.287,2.333,99.05287,-3.113,-1.851,31.44,0,109.6,13.33,-2.37,251.3
"2016-03-20 01:09:00",1473189,4.006,298.5,7.444,1.287,1.96,99.05428,-3.11,-1.893,31.03,0,109.6,13.34,-2.37,260.5
"2016-03-20 01:09:30",1473190,4.731,295.9,7.028,1.421,3.371,99.05195,-3.116,-1.801,30.8,0,109.6,13.34,-2.37,257.9
"2016-03-20 01:10:00",1473191,4.064,289.8,6.873,1.252,2.084,99.04257,-3.14,-1.875,30.54,0,109.6,13.34,-2.40,251.8
"2016-03-20 01:10:30",1473192,5.066,292.8,8.16,1.315,4.183,99.0349,-3.159,-1.852,30.54,0,109.6,13.35,-2.42,254.8
"2016-03-20 01:11:00",1473193,3.901,301,8.22,1.316,1.868,99.03713,-3.153,-1.925,30.37,0,109.6,13.35,-2.41,263.0
"2016-03-20 01:11:30",1473194,3.875,293.5,8.04,1.464,2.495,99.04021,-3.145,-1.901,30.29,0,109.6,13.35,-2.40,255.5
"2016-03-20 01:12:00",1473195,4.33,284.4,7.69,1.37,3.003,99.03652,-3.155,-1.934,30.21,0,109.6,13.35,-2.41,246.4
"2016-03-20 01:12:30",1473196,4.039,290.3,8.25,1.442,2.611,99.03111,-3.169,-1.859,30.35,0,109.6,13.35,-2.43,252.3
"2016-03-20 01:13:00",1473197,3.666,309.4,9.28,1.529,2.241,99.02769,-3.177,-1.973,30.4,0,109.6,13.35,-2.44,271.4
"2016-03-20 01:13:30",1473198,3.017,288.8,13.84,1.418,2.475,99.02231,-3.191,-1.936,30.68,0,109.6,13.35,-2.45,250.8
"2016-03-20 01:14:00",1473199,3.728,294.1,6.416,1.213,3.011,99.01494,-3.21,-1.958,30.54,0,109.6,13.35,-2.47,256.1
"2016-03-20 01:14:30",1473200,3.724,297,8.27,1.288,1.822,99.01494,-3.21,-2.062,30.45,0,109.6,13.36,-2.47,259.0
"2016-03-20 01:15:00",1473201,4.282,298,7.556,1.418,2.726,99.01494,-3.21,-1.956,30.58,0,109.6,13.36,-2.47,260.0
"2016-03-20 01:15:30",1473202,3.698,306.7,8.55,1.292,2.218,99.01211,-3.217,-2.006,30.48,0,109.6,13.36,-2.48,268.7
"2016-03-20 01:16:00",1473203,3.312,315.5,8.54,1.388,3.213,99.00108,-3.245,-1.946,30.4,0,109.7,13.36,-2.50,277.5
"2016-03-20 01:16:30",1473204,2.805,311.3,9.27,1.287,2.602,98.99683,-3.256,-1.986,30.38,0,109.6,13.36,-2.52,273.3
"2016-03-20 01:17:00",1473205,3.329,318.7,11.49,1.408,1.29,98.9855,-3.285,-2.092,30.35,0,109.6,13.36,-2.54,280.7
"2016-03-20 01:17:30",1473206,4.801,318.1,7.819,1.479,2.189,98.98097,-3.296,-2.066,30.36,0,109.6,13.36,-2.56,280.1
"2016-03-20 01:18:00",1473207,6.175,305.5,9.06,1.337,3.73,98.98154,-3.295,-1.943,30.53,0,109.6,13.36,-2.55,267.5
"2016-03-20 01:18:30",1473208,5.161,297.4,8.31,1.28,3.98,98.98405,-3.289,-1.98,30.84,0,109.6,13.36,-2.55,259.4
"2016-03-20 01:19:00",1473209,4.409,305.9,8.95,1.272,4.072,98.98882,-3.276,-1.967,30.6,0,109.5,13.36,-2.54,267.9
"2016-03-20 01:19:30",1473210,3.309,295.9,7.279,1.362,2.71,98.99162,-3.269,-2.041,30.32,0,109.5,13.37,-2.53,257.9
"2016-03-20 01:20:00",1473211,4.219,318.8,7.601,1.298,2.455,98.98848,-3.277,-2.092,30.17,0,109.5,13.36,-2.54,280.8
"2016-03-20 01:20:30",1473212,4.053,312.1,7.192,1.345,2.442,98.98674,-3.282,-2.068,30.25,0,109.5,13.37,-2.54,274.1
"2016-03-20 01:21:00",1473213,4.899,303.8,8.87,1.478,2.776,98.98136,-3.295,-2.08,30.29,0,109.5,13.36,-2.56,265.8
"2016-03-20 01:21:30",1473214,5.247,305.9,7.928,1.326,3.334,98.98077,-3.297,-1.993,31.07,0,109.5,13.36,-2.56,267.9
"2016-03-20 01:22:00",1473215,4.898,300.5,12.38,1.29,2.825,98.98047,-3.298,-2.077,31.78,0,109.5,13.36,-2.56,262.5
"2016-03-20 01:22:30",1473216,5.323,315.4,7.839,1.262,3.805,98.98384,-3.289,-2.047,31.31,0,109.5,13.36,-2.55,277.4
"2016-03-20 01:23:00",1473217,3.409,301,6.334,1.096,1.619,98.98496,-3.286,-2.1,30.81,0,109.5,13.36,-2.55,263.0
"2016-03-20 01:23:30",1473218,3.639,309.2,4.734,1.38,2.763,98.98608,-3.283,-2.078,30.52,0,109.5,13.36,-2.54,271.2
"2016-03-20 01:24:00",1473219,3.446,315.9,7.661,1.411,2.784,98.97984,-3.299,-2.137,30.06,0,109.5,13.36,-2.56,277.9
"2016-03-20 01:24:30",1473220,3.968,326.1,7.506,1.199,3.169,98.97812,-3.304,-2.023,29.88,0,109.5,13.37,-2.56,288.1
"2016-03-20 01:25:00",1473221,4.051,320.9,7.422,1.458,2.714,98.98035,-3.298,-2.122,29.65,0,109.5,13.36,-2.56,282.9
"2016-03-20 01:25:30",1473222,4.372,319.8,7.827,1.369,2.719,98.98062,-3.297,-2.066,29.72,0,109.5,13.37,-2.56,281.8
"2016-03-20 01:26:00",1473223,4.597,306.3,9.26,1.358,3.371,98.98062,-3.297,-2.121,29.7,0,109.5,13.37,-2.56,268.3
"2016-03-20 01:26:30",1473224,3.98,305.2,9.83,1.414,3.06,98.98062,-3.297,-2.036,29.89,0,109.5,13.37,-2.56,267.2
"2016-03-20 01:27:00",1473225,4.877,314.8,7.475,1.237,3.873,98.97893,-3.302,-2.035,29.91,0,109.5,13.37,-2.56,276.8
"2016-03-20 01:27:30",1473226,3.868,301.9,7.456,1.341,2.4,98.97553,-3.31,-2.183,29.79,0,109.5,13.38,-2.57,263.9
"2016-03-20 01:28:00",1473227,3.853,301,8.13,1.332,2.334,98.96817,-3.329,-2.039,30.12,0,109.5,13.38,-2.59,263.0
"2016-03-20 01:28:30",1473228,4.577,296.3,7.886,1.438,2.402,98.96619,-3.334,-2.151,30.08,0,109.5,13.38,-2.59,258.3
"2016-03-20 01:29:00",1473229,4.695,305.2,7.737,1.28,3.742,98.96449,-3.338,-2.011,30.39,0,109.5,13.38,-2.60,267.2
"2016-03-20 01:29:30",1473230,4.806,306.8,7.173,1.414,2.809,98.96785,-3.33,-2.131,30.06,0,109.5,13.38,-2.59,268.8
"2016-03-20 01:30:00",1473231,4.839,305.2,9.52,1.369,3.578,98.97008,-3.324,-2.092,30.39,0,109.5,13.39,-2.58,267.2
"2016-03-20 01:30:30",1473232,3.887,310.4,10.42,1.43,2.497,98.97115,-3.321,-2.127,30.27,0,109.5,13.39,-2.58,272.4
"2016-03-20 01:31:00",1473233,4.356,310.8,7.441,1.347,2.863,98.96573,-3.335,-2.168,29.87,0,109.5,13.39,-2.59,272.8
"2016-03-20 01:31:30",1473234,3.828,313.3,9.03,1.329,2.851,98.96571,-3.335,-2.074,29.78,0,109.5,13.39,-2.60,275.3
"2016-03-20 01:32:00",1473235,4.349,316.1,6.92,1.275,3.195,98.96346,-3.341,-2.127,29.49,0,109.5,13.39,-2.60,278.1
"2016-03-20 01:32:30",1473236,4.211,311.8,6.898,1.358,3.608,98.9643,-3.339,-2.081,29.59,0,109.5,13.39,-2.60,273.8
"2016-03-20 01:33:00",1473237,3.147,307.1,6.198,1.246,2.297,98.96542,-3.336,-2.138,29.48,0,109.5,13.39,-2.60,269.1
"2016-03-20 01:33:30",1473238,4.116,313,8.23,1.315,3.272,98.96851,-3.328,-2.141,29.41,0,109.5,13.39,-2.59,275.0
"2016-03-20 01:34:00",1473239,3.578,309.2,7.65,1.28,2.21,98.97103,-3.322,-2.092,29.46,0,109.5,13.39,-2.58,271.2
"2016-03-20 01:34:30",1473240,4.129,311.9,4.868,1.199,2.543,98.97243,-3.318,-2.128,29.49,0,109.5,13.39,-2.58,273.9
"2016-03-20 01:35:00",1473241,4.999,312.6,9.85,1.338,3.855,98.97271,-3.317,-2.085,29.69,0,109.5,13.39,-2.58,274.6
"2016-03-20 01:35:30",1473242,4.456,301.8,6.596,1.344,3.292,98.973,-3.317,-2.042,29.9,0,109.5,13.39,-2.58,263.8
"2016-03-20 01:36:00",1473243,3.837,297.1,8.85,1.309,2.85,98.97607,-3.309,-2.131,29.93,0,109.6,13.39,-2.57,259.1
"2016-03-20 01:36:30",1473244,3.828,306.2,10.53,1.293,2.269,98.97691,-3.307,-2.097,29.98,0,109.5,13.39,-2.57,268.2
"2016-03-20 01:37:00",1473245,3.833,306.6,7.4,1.354,2.5,98.9769,-3.307,-2.082,29.88,0,109.5,13.39,-2.57,268.6
"2016-03-20 01:37:30",1473246,3.448,304.9,6.489,1.157,1.658,98.97433,-3.313,-2.153,29.74,0,109.5,13.39,-2.57,266.9
"2016-03-20 01:38:00",1473247,4.307,313.7,7.216,1.318,3.689,98.96923,-3.326,-2.06,29.71,0,109.5,13.39,-2.59,275.7
"2016-03-20 01:38:30",1473248,3.91,315.3,8.52,1.339,2.937,98.9664,-3.334,-2.169,29.53,0,109.5,13.39,-2.59,277.3
"2016-03-20 01:39:00",1473249,3.774,314.5,8.29,1.404,2.731,98.96385,-3.34,-2.137,29.35,0,109.5,13.39,-2.60,276.5
"2016-03-20 01:39:30",1473250,3.896,307.9,7.717,1.394,2.409,98.96328,-3.341,-2.095,29.25,0,109.5,13.39,-2.60,269.9
"2016-03-20 01:40:00",1473251,5.153,320.1,6.756,1.228,3.978,98.96328,-3.341,-2.084,29.52,0,109.5,13.39,-2.60,282.1
"2016-03-20 01:40:30",1473252,3.959,314.4,6.675,1.272,2.55,98.96328,-3.341,-2.08,29.6,0,109.5,13.39,-2.60,276.4
"2016-03-20 01:41:00",1473253,3.851,321.4,7.031,1.316,3.119,98.96215,-3.344,-2.158,29.56,0,109.5,13.39,-2.60,283.4
"2016-03-20 01:41:30",1473254,3.383,324.6,7.809,1.278,2.373,98.96017,-3.349,-2.167,29.38,0,109.5,13.39,-2.61,286.6
"2016-03-20 01:42:00",1473255,3.529,312.4,4.022,1.379,1.837,98.9579,-3.355,-2.177,29.28,0,109.5,13.39,-2.61,274.4
"2016-03-20 01:42:30",1473256,4.306,312.2,6.428,1.405,2.491,98.95336,-3.367,-2.132,29.59,0,109.5,13.39,-2.63,274.2
"2016-03-20 01:43:00",1473257,3.979,318,7.327,1.394,2.953,98.95107,-3.373,-2.117,29.67,0,109.5,13.4,-2.63,280.0
"2016-03-20 01:43:30",1473258,4.458,318,7.274,1.308,3.9,98.95163,-3.371,-2.071,29.58,0,109.5,13.4,-2.63,280.0
"2016-03-20 01:44:00",1473259,4.548,312.3,9.23,1.456,3.491,98.95387,-3.365,-2.103,29.52,0,109.5,13.4,-2.63,274.3
"2016-03-20 01:44:30",1473260,4.83,320.8,6.977,1.271,3.583,98.95386,-3.365,-2.178,29.5,0,109.5,13.4,-2.63,282.8
"2016-03-20 01:45:00",1473261,4.081,318.1,6.573,1.351,2.488,98.9575,-3.356,-2.114,29.51,0,109.5,13.4,-2.62,280.1